| time (UTC) | temp F | wind direction | speed MPH | gust MPH | rain 1hr in | rain 24hr in | rain mn in | humidity % | barometer mb |
| 20260902184508 | 74 | 193 | 0.0 | 1.0 | 0.01 | 0.13 | 0.01 | 68 | 1020.7 |
| 20260902183006 | 73 | 88 | 0.0 | 3.0 | 0.01 | 0.13 | 0.01 | 68 | 1020.8 |
| 20260902181506 | 73 | 82 | 0.0 | 1.0 | 0.01 | 0.15 | 0.01 | 68 | 1020.8 |
| 20260902180035 | 74 | 82 | 0.0 | 8.0 | 0.01 | 0.15 | 0.01 | 68 | 1020.6 |
| 20260902174533 | 73 | 167 | 0.0 | 6.0 | 0.00 | 0.14 | 0.00 | 70 | 1020.6 |
| 20260902173101 | 72 | 87 | 0.0 | 1.0 | 0.00 | 0.14 | 0.00 | 70 | 1020.8 |
| 20260902173000 | 72 | 87 | 0.0 | 1.0 | 0.00 | 0.14 | 0.00 | 70 | 1020.9 |
| 20260902171608 | 72 | 98 | 0.0 | 0.0 | 0.00 | 0.28 | 0.00 | 69 | 1021.0 |
| 20260902170056 | 72 | 168 | 0.0 | 9.0 | 0.00 | 0.28 | 0.00 | 69 | 1021.0 |
| 20260902164555 | 72 | 74 | 0.0 | 6.0 | 0.00 | 0.28 | 0.00 | 70 | 1021.2 |
| 20260902163055 | 71 | 107 | 0.0 | 4.0 | 0.00 | 0.28 | 0.00 | 72 | 1021.3 |
| 20260902161551 | 71 | 114 | 0.0 | 4.0 | 0.00 | 0.32 | 0.00 | 71 | 1021.4 |
| 20260902160106 | 71 | 120 | 0.0 | 1.0 | 0.00 | 0.32 | 0.00 | 72 | 1021.5 |
| 20260902154555 | 70 | 125 | 0.0 | 6.0 | 0.00 | 0.32 | 0.00 | 73 | 1021.6 |
| 20260902153044 | 69 | 90 | 0.0 | 1.0 | 0.00 | 0.32 | 0.00 | 74 | 1022.0 |
| 20260902151542 | 69 | 54 | 0.0 | 1.0 | 0.00 | 0.40 | 0.00 | 77 | 1021.9 |
| 20260902150040 | 69 | 105 | 0.0 | 0.0 | 0.00 | 0.40 | 0.00 | 79 | 1022.0 |
| 20260902144510 | 68 | 105 | 0.0 | 1.0 | 0.00 | 0.40 | 0.00 | 81 | 1022.0 |
| 20260902143006 | 67 | 102 | 1.0 | 7.0 | 0.00 | 0.40 | 0.00 | 81 | 1022.0 |
| 20260902141552 | 67 | 101 | 0.0 | 0.0 | 0.00 | 0.61 | 0.00 | 84 | 1021.8 |
| 20260902140035 | 66 | 102 | 0.0 | 2.0 | 0.00 | 0.61 | 0.00 | 86 | 1021.7 |
| 20260902134519 | 65 | 105 | 0.0 | 6.0 | 0.00 | 0.61 | 0.00 | 87 | 1021.6 |
| 20260902133018 | 64 | 111 | 0.0 | 1.0 | 0.00 | 0.61 | 0.00 | 88 | 1021.4 |
| 20260902131516 | 64 | 116 | 0.0 | 7.0 | 0.00 | 0.77 | 0.00 | 89 | 1021.3 |
| 20260902130013 | 64 | 95 | 0.0 | 8.0 | 0.00 | 0.77 | 0.00 | 89 | 1021.2 |
| 20260902123020 | 63 | 88 | 0.0 | 0.0 | 0.00 | 0.77 | 0.00 | 89 | 1021.4 |
| 20260902121508 | 62 | 88 | 0.0 | 6.0 | 0.00 | 0.87 | 0.00 | 90 | 1021.5 |
| 20260902120005 | 62 | 92 | 0.0 | 3.0 | 0.00 | 0.87 | 0.00 | 90 | 1021.5 |
| 20260902114501 | 62 | 93 | 0.0 | 0.0 | 0.00 | 0.87 | 0.00 | 90 | 1021.6 |
| 20260902113059 | 61 | 93 | 0.0 | 3.0 | 0.00 | 0.87 | 0.00 | 90 | 1021.6 |
| 20260902111601 | 61 | 92 | 0.0 | 4.0 | 0.00 | 0.88 | 0.00 | 90 | 1021.6 |
| 20260902110104 | 61 | 93 | 0.0 | 3.0 | 0.00 | 0.88 | 0.00 | 90 | 1021.4 |
| 20260902104537 | 60 | 92 | 0.0 | 0.0 | 0.00 | 0.88 | 0.00 | 90 | 1021.3 |
| 20260902103039 | 61 | 92 | 0.0 | 0.0 | 0.00 | 0.88 | 0.00 | 90 | 1021.2 |
| 20260902101547 | 60 | 92 | 0.0 | 0.0 | 0.00 | 0.88 | 0.00 | 90 | 1021.0 |
| 20260902100045 | 60 | 92 | 0.0 | 0.0 | 0.00 | 0.88 | 0.00 | 90 | 1020.9 |
| 20260902094544 | 60 | 92 | 0.0 | 0.0 | 0.00 | 0.88 | 0.00 | 90 | 1020.7 |
| 20260902093040 | 60 | 92 | 0.0 | 0.0 | 0.00 | 0.88 | 0.00 | 90 | 1020.4 |
| 20260902091534 | 59 | 90 | 0.0 | 0.0 | 0.00 | 0.88 | 0.00 | 90 | 1020.3 |
| 20260902090033 | 59 | 90 | 0.0 | 0.0 | 0.00 | 0.88 | 0.00 | 90 | 1020.4 |
| 20260902084538 | 59 | 90 | 0.0 | 0.0 | 0.00 | 0.88 | 0.00 | 90 | 1020.4 |
| 20260902083029 | 59 | 90 | 0.0 | 0.0 | 0.00 | 0.88 | 0.00 | 90 | 1020.2 |
| 20260902081530 | 59 | 90 | 0.0 | 0.0 | 0.00 | 0.88 | 0.00 | 90 | 1020.1 |
| 20260902080028 | 59 | 90 | 0.0 | 0.0 | 0.00 | 0.88 | 0.00 | 90 | 1020.3 |
| 20260902074557 | 60 | 90 | 0.0 | 0.0 | 0.00 | 0.88 | 0.00 | 90 | 1020.0 |
| 20260902073053 | 60 | 90 | 0.0 | 0.0 | 0.00 | 0.88 | 0.00 | 90 | 1020.1 |
| 20260902071548 | 59 | 92 | 0.0 | 0.0 | 0.00 | 0.88 | 0.00 | 90 | 1020.3 |
| 20260902070048 | 59 | 92 | 0.0 | 0.0 | 0.00 | 0.88 | 0.00 | 91 | 1020.2 |
| 20260902064547 | 59 | 92 | 0.0 | 0.0 | 0.00 | 0.88 | 0.00 | 91 | 1020.4 |
| 20260902061513 | 59 | 92 | 0.0 | 0.0 | 0.00 | 0.88 | 0.00 | 91 | 1020.3 |
| 20260902060010 | 60 | 92 | 0.0 | 0.0 | 0.00 | 0.88 | 0.00 | 91 | 1020.3 |
| 20260902054545 | 60 | 92 | 0.0 | 0.0 | 0.00 | 0.88 | 0.00 | 91 | 1020.0 |
| 20260902053034 | 59 | 92 | 0.0 | 0.0 | 0.00 | 0.88 | 0.00 | 91 | 1019.7 |
| 20260902051531 | 59 | 92 | 0.0 | 0.0 | 0.00 | 0.88 | 0.00 | 91 | 1019.7 |
| 20260902050029 | 59 | 92 | 0.0 | 0.0 | 0.00 | 0.88 | 0.00 | 91 | 1019.9 |
| 20260902044528 | 59 | 92 | 0.0 | 0.0 | 0.00 | 0.88 | 0.00 | 91 | 1019.8 |
| 20260902043027 | 59 | 92 | 0.0 | 0.0 | 0.00 | 0.88 | 0.00 | 91 | 1019.7 |
| 20260902041525 | 59 | 92 | 0.0 | 0.0 | 0.00 | 0.88 | 0.00 | 91 | 1019.7 |
| 20260902040023 | 59 | 92 | 0.0 | 0.0 | 0.00 | 0.88 | 0.00 | 91 | 1019.3 |
| 20260902034521 | 59 | 92 | 0.0 | 0.0 | 0.00 | 0.88 | 0.00 | 91 | 1019.2 |
| 20260902033021 | 59 | 92 | 0.0 | 0.0 | 0.00 | 0.88 | 0.00 | 91 | 1019.1 |
| 20260902031518 | 59 | 92 | 0.0 | 0.0 | 0.00 | 0.88 | 0.00 | 91 | 1018.8 |
| 20260902030017 | 59 | 92 | 0.0 | 0.0 | 0.00 | 0.88 | 0.00 | 91 | 1018.8 |
| 20260902024516 | 59 | 92 | 0.0 | 0.0 | 0.00 | 0.88 | 0.00 | 91 | 1019.3 |
| 20260902023016 | 59 | 92 | 0.0 | 0.0 | 0.00 | 0.88 | 0.00 | 91 | 1018.9 |
| 20260902021517 | 59 | 92 | 0.0 | 0.0 | 0.00 | 0.88 | 0.00 | 91 | 1018.8 |
| 20260902020012 | 59 | 92 | 0.0 | 0.0 | 0.00 | 0.88 | 0.00 | 91 | 1019.0 |
| 20260902014525 | 59 | 92 | 0.0 | 0.0 | 0.00 | 0.88 | 0.00 | 91 | 1018.9 |
| 20260902013008 | 59 | 92 | 0.0 | 2.0 | 0.00 | 0.88 | 0.00 | 91 | 1018.9 |
| 20260902011506 | 59 | 91 | 0.0 | 0.0 | 0.00 | 0.88 | 0.00 | 91 | 1018.7 |
| 20260902010003 | 59 | 91 | 0.0 | 0.0 | 0.00 | 0.88 | 0.00 | 91 | 1018.5 |
| 20260902004505 | 59 | 91 | 0.0 | 0.0 | 0.00 | 0.88 | 0.00 | 91 | 1018.6 |
| 20260902003003 | 59 | 91 | 0.0 | 0.0 | 0.00 | 0.88 | 0.00 | 91 | 1018.4 |
| 20260902001600 | 59 | 91 | 0.0 | 0.0 | 0.00 | 0.88 | 0.00 | 91 | 1018.3 |
| 20260902000053 | 59 | 91 | 0.0 | 0.0 | 0.00 | 0.88 | 0.00 | 91 | 1018.2 |
| 20260901234558 | 59 | 91 | 0.0 | 0.0 | 0.00 | 0.88 | 0.00 | 91 | 1018.4 |
| 20260901233047 | 59 | 91 | 0.0 | 0.0 | 0.00 | 0.88 | 0.00 | 91 | 1018.2 |
| 20260901231623 | 59 | 91 | 0.0 | 0.0 | 0.00 | 0.88 | 0.00 | 91 | 1018.1 |
| 20260901230037 | 59 | 91 | 0.0 | 0.0 | 0.00 | 0.88 | 0.00 | 91 | 1018.1 |
| 20260901224521 | 59 | 90 | 0.0 | 0.0 | 0.00 | 0.88 | 0.00 | 91 | 1018.0 |
| 20260901223015 | 60 | 91 | 0.0 | 6.0 | 0.00 | 0.88 | 0.00 | 91 | 1017.9 |
| 20260901221514 | 60 | 89 | 0.0 | 3.0 | 0.00 | 0.88 | 0.88 | 91 | 1018.1 |
| 20260901220011 | 61 | 88 | 0.0 | 3.0 | 0.00 | 0.88 | 0.88 | 91 | 1018.0 |
| 20260901214510 | 61 | 97 | 0.0 | 2.0 | 0.02 | 0.88 | 0.88 | 91 | 1017.8 |
| 20260901213027 | 61 | 98 | 0.0 | 0.0 | 0.05 | 0.88 | 0.88 | 91 | 1017.6 |
| 20260901211508 | 61 | 100 | 0.0 | 0.0 | 0.05 | 0.88 | 0.88 | 91 | 1017.6 |
| 20260901210017 | 61 | 101 | 0.0 | 0.0 | 0.05 | 0.88 | 0.88 | 91 | 1017.5 |
| 20260901204508 | 61 | 101 | 0.0 | 0.0 | 0.04 | 0.86 | 0.86 | 91 | 1017.5 |
| 20260901203008 | 61 | 101 | 0.0 | 0.0 | 0.01 | 0.83 | 0.83 | 91 | 1017.5 |
| 20260901201506 | 61 | 101 | 0.0 | 0.0 | 0.02 | 0.83 | 0.83 | 91 | 1017.4 |
| 20260901200003 | 61 | 83 | 0.0 | 4.0 | 0.05 | 0.83 | 0.83 | 91 | 1017.3 |
| 20260901194502 | 61 | 78 | 0.0 | 4.0 | 0.05 | 0.82 | 0.82 | 91 | 1017.3 |
| 20260901193000 | 61 | 143 | 0.0 | 0.0 | 0.06 | 0.82 | 0.82 | 91 | 1017.2 |
| 20260901191615 | 61 | 145 | 0.0 | 1.0 | 0.05 | 0.81 | 0.81 | 91 | 1017.3 |
| 20260901191500 | 61 | 145 | 0.0 | 1.0 | 0.04 | 0.80 | 0.80 | 91 | 1017.3 |
| 20260901190034 | 61 | 148 | 0.0 | 0.0 | 0.02 | 0.78 | 0.78 | 91 | 1017.1 |